Hlavní strana
METAR-TAF:

METAR-TAF

Letiště :

Henderson-Oxford Airport

Oxford, Severní Karolína, Spojené státy americké

zeměpisná šířka: 36-21-42N, zeměpisná délka: 078-31-45W, výška: 161 m

Aktuální stav počasí

Zpráva byla vytvořena před 21 minutami, v 15:15 UTC
Bezvětří
Teplota 29°C
Vlhkost vzduchu 52%
Tlak 1015 hPa
Viditelnost: 16.1 km
Jasno

METAR: KHNZ 031515Z AUTO 00000KT 10SM CLR 29/18 A2997 RMK AO2 T02880182

Čas: 11:36 (15:36 UTC)


TAF: chybějící

Stav a předpovědi počasí z více než 4 000 letišť (zprávy METAR a TAF).

Červené a žluté tečky na mapě představují dostupné meteorologické stanice.

Když kurzor umístíte na tečku, zobrazí se název stanice.

Pak kliknutím zobrazíte stav a předpověď počasí.

Chcete-li změnit mapu, kliknutím na zelené tlačítko se znaménkem +mapu přiblížíte, kliknutím na zelené tlačítko se znaménkem – mapu oddálíte a kliknutím na zelené šipky přejdete na sousední mapy.


METAR-TAF: